This is the latest recevied weather packets stored in our database for station/object K9ZOG. If no packets are shown the sender has not sent any weather packets the latest 10 day(s).
| Time | Temp. | Humidity | Pressure | Rain* | Wind** | Luminosity | Snow |
|---|---|---|---|---|---|---|---|
| 1777726752 | 4.44° C | 68% | 1019 hPa | 0 mm | - | 54 W/m² | - |
| 1777726453 | 4.44° C | 70% | 1019 hPa | 0 mm | - | 49 W/m² | - |
| 1777726155 | 4.44° C | 72% | 1018.9 hPa | 0 mm | - | 49 W/m² | - |
| 1777725854 | 3.89° C | 72% | 1019 hPa | 0 mm | - | 47 W/m² | - |
| 1777725553 | 3.89° C | 73% | 1019 hPa | 0 mm | - | 46 W/m² | - |
| 1777725252 | 3.89° C | 74% | 1019 hPa | 0 mm | - | 45 W/m² | - |
| 1777724952 | 3.33° C | 75% | 1019 hPa | 0 mm | - | 45 W/m² | - |
| 1777724652 | 3.33° C | 77% | 1019.1 hPa | 0 mm | - | 44 W/m² | - |
| 1777724352 | 2.78° C | 78% | 1019.1 hPa | 0 mm | - | 42 W/m² | - |
| 1777724052 | 2.78° C | 81% | 1019.3 hPa | 0 mm | - | 41 W/m² | - |
| 1777723752 | 2.22° C | 83% | 1019.6 hPa | 0 mm | - | 40 W/m² | - |
| 1777723453 | 2.22° C | 86% | 1019.9 hPa | 0 mm | - | 40 W/m² | - |
| 1777723152 | 1.67° C | 89% | 1020.3 hPa | 0 mm | - | 39 W/m² | - |
| 1777722855 | 1.11° C | 91% | 1020.7 hPa | 0 mm | - | 37 W/m² | - |
| 1777722552 | 1.11° C | 92% | 1020.8 hPa | 0 mm | - | 36 W/m² | - |
| 1777722254 | 0.56° C | 92% | 1020.7 hPa | 0 mm | - | 35 W/m² | - |
| 1777721953 | 0° C | 91% | 1020.5 hPa | 0 mm | - | 35 W/m² | - |
| 1777721654 | 0° C | 91% | 1020.4 hPa | 0 mm | - | 32 W/m² | - |
| 1777721353 | 0° C | 90% | 1020.4 hPa | 0 mm | - | 30 W/m² | - |
| 1777721053 | 0° C | 90% | 1020.3 hPa | 0 mm | - | 26 W/m² | - |
| 1777720753 | 0° C | 90% | 1020.3 hPa | 0 mm | - | 25 W/m² | - |
| 1777720453 | 0° C | 89% | 1020.3 hPa | 0 mm | - | 21 W/m² | - |
| 1777720153 | 0° C | 89% | 1020.2 hPa | 0 mm | - | 19 W/m² | - |
| 1777719853 | 0° C | 89% | 1020.2 hPa | 0 mm | - | 17 W/m² | - |
| 1777719552 | 0° C | 89% | 1020.1 hPa | 0 mm | - | 13 W/m² | - |
* Rain latest hour (hover to see other rain measurements)
** Current wind speed in m/s (hover to see current wind gust speed)